Вернуться в каталог

STARLINK-32660

АктивенСвязьVLEO
NORAD 62205·PAYLOAD·🇺🇸 United States

Запущен Dec 4, 2024 с Cape Canaveral Space Force Station

Loading…

Ближайшие Пролёты (ближайшие 24 часа)

TLE

СвежийSource: CelesTrak SupGP

Эпоха: Sep 15, 2026, 03:05 UTC

1 62205C 24229P   26258.12895833 -.00016814  00000+0 -60897-3 0  2588
2 62205  42.9999 266.6726 0001385 268.7372 224.2905 15.27588817    13

Отслеживайте STARLINK-32660 в реальном времени с AllMySat

Download on the App Store